Location: Unspecified
(51.0950°N, 12.9690°E)
Time: 22:18:45
(UTC+00:00)

CENTAUR R/B - Pass Details

Date: 28 October 2021
Orbit: 728 x 1459 km, 63.4° (Epoch: 26 November)

Event Time Altitude Azimuth Distance (km) Brightness Sun altitude
Rises 16:36:38 0° 299° (WNW) 3,846 6.5 -8.0°
Reaches altitude 10° 16:39:25 10° 309° (NW) 3,001 5.7 -8.4°
Maximum altitude 16:46:02 35° 13° (NNE) 1,914 3.9 -9.4°
Enters shadow 16:52:56 12° 75° (ENE) 3,250 4.6 -10.5°
